Wind_Speed
17 18 18 18 18 18 18 20 18 17 16 15 15 17 19 24 28 27 31 30 23 20 20 11 6 13 19 18 20 16 3 5 11 11 16 26 13 22 19 7 12 16 13 20 20
17 18 19 19 20 21 21 20 20 20 18 18 17 16 17 21 26 33 32 32 28 22 20 25 19 15 24 22 17 16 6 10 11 15 17 20 16 28 21 11 18 25 20 32 29
16 17 17 19 20 21 21 21 21 20 20 20 18 17 16 18 23 21 11 19 24 25 27 21 20 22 27 28 27 25 22 16 20 27 31 25 26 26 21 8 12 11 18 18 22
17 17 18 19 20 20 20 21 21 22 21 20 20 19 16 14 6 6 1 12 10 21 26 26 23 24 10 19 29 19 27 28 23 32 34 24 31 25 26 22 28 31 34 26 23
19 20 21 21 20 20 20 20 20 21 22 23 21 20 20 12 26 12 15 10 15 11 27 25 25 19 12 10 22 25 21 27 30 31 36 40 32 27 31 36 36 30 34 33 29
20 22 23 24 24 23 23 22 20 20 21 23 23 22 17 18 17 14 14 22 18 11 17 24 22 23 18 16 20 22 23 28 28 34 35 28 30 31 31 32 34 35 40 41 33
18 19 20 20 20 22 24 25 24 23 22 20 20 19 21 34 24 17 22 19 13 19 19 22 23 20 7 12 30 27 20 19 26 29 28 32 28 29 34 34 38 35 37 34 34
24 25 25 24 24 23 26 25 22 20 21 18 19 14 14 25 17 16 24 21 19 18 20 21 21 19 15 19 23 18 15 21 22 20 29 18 40 20 30 35 29 37 43 37 35
26 27 29 29 28 28 31 25 20 14 19 20 19 10 15 11 16 7 10 18 15 20 22 18 19 21 15 6 8 17 21 22 24 22 18 14 33 17 32 32 34 43 43 42 43
27 29 29 30 27 26 24 22 18 16 12 8 11 10 18 11 7 7 3 6 10 16 19 17 16 10 10 11 18 12 21 24 29 11 18 23 31 29 43 36 36 38 37 38 35
27 31 34 30 26 18 20 26 31 9 6 18 28 19 40 21 21 7 8 12 9 11 7 15 8 21 36 24 15 15 18 21 20 18 15 23 25 25 24 20 20 27 33 33 36
29 30 29 25 20 12 15 18 20 21 24 39 36 43 42 41 36 33 24 24 12 8 8 10 22 27 17 16 18 19 23 24 15 12 13 20 18 22 23 14 26 35 30 27 31
27 28 27 20 14 13 18 21 24 26 15 39 31 35 44 31 33 34 29 26 15 13 13 16 17 17 21 19 19 25 26 20 19 10 17 15 15 19 17 19 20 24 28 32 29
26 27 22 21 9 14 16 26 24 23 4 10 28 14 15 26 26 33 34 29 18 18 15 16 19 22 19 22 21 24 15 21 18 11 16 10 16 21 13 17 19 25 30 40 40
25 24 16 12 17 13 22 26 20 11 4 18 13 15 18 14 13 13 19 24 17 16 11 23 14 9 19 22 20 24 15 18 13 16 17 19 9 18 9 8 9 10 24 29 32
22 17 15 11 14 21 22 18 14 3 4 9 6 11 11 12 10 18 9 17 19 15 14 17 20 17 17 17 19 17 16 18 16 12 11 19 15 25 14 11 9 9 22 31 34
20 11 8 8 10 18 17 17 2 2 14 12 19 18 15 15 18 17 17 13 6 6 11 12 14 18 20 18 17 16 12 6 10 10 17 14 12 18 7 13 22 15 22 16 5
18 7 8 7 9 17 16 5 2 6 14 16 19 11 10 14 14 17 17 10 13 11 10 9 9 9 10 17 11 13 15 9 13 12 17 13 8 11 19 12 20 23 22 17 24
15 5 5 3 7 11 10 3 1 9 12 17 19 9 11 12 1 7 12 10 8 5 2 5 8 12 17 16 13 19 16 20 17 10 8 5 13 21 26 20 11 14 18 28 31
20 13 5 8 10 9 3 4 9 14 18 11 11 10 16 12 9 13 6 7 11 4 2 1 7 8 16 14 14 18 11 7 11 13 13 7 13 12 12 19 16 8 17 28 33
10 5 6 8 4 3 0 4 19 16 26 5 4 18 11 11 4 8 8 11 9 10 10 7 4 9 10 3 8 7 16 11 9 7 11 6 10 11 19 15 11 12 26 33 36
6 3 4 9 4 3 2 16 22 21 27 14 12 12 12 16 13 9 10 9 11 8 6 3 3 6 13 18 17 18 21 16 9 19 9 4 9 8 6 7 10 14 28 34 38
16 8 10 4 2 2 9 14 19 19 12 11 14 14 11 9 7 5 4 12 15 6 1 4 3 5 8 6 8 7 12 15 7 5 20 10 13 4 11 7 12 20 30 32 37
8 4 8 16 16 10 11 11 15 19 15 17 13 15 7 4 8 8 7 8 10 13 7 5 3 6 8 10 8 11 20 16 11 9 8 13 19 10 13 8 17 25 32 35 35
4 5 12 5 11 14 11 11 18 18 12 19 5 12 16 11 16 13 14 14 2 7 4 3 4 10 15 18 12 16 19 19 16 15 11 16 8 12 6 9 15 28 32 33 32
8 7 10 17 19 17 8 7 14 12 15 8 15 14 11 15 13 16 13 10 10 9 4 4 3 10 13 14 11 17 20 19 20 22 17 20 19 6 1 18 14 25 30 27 31
9 9 13 8 9 10 10 18 18 16 9 23 17 9 12 15 21 30 26 22 14 11 9 8 5 3 5 9 8 8 16 18 14 18 21 18 17 8 8 11 10 18 26 29 31
Wind_Direction
334 332 330 330 329 326 325 326 324 319 315 312 308 307 305 292 281 278 267 263 260 244 244 233 248 213 205 228 225 223 224 222 249 254 264 296 310 321 322 350 318 327 321 319 310
337 334 332 328 325 324 324 320 317 317 314 311 311 309 305 300 291 278 271 272 261 237 233 226 226 229 226 226 216 218 221 219 231 261 278 288 303 302 304 14 301 284 303 306 303
351 346 342 338 334 331 328 325 321 316 312 310 308 307 307 310 307 289 287 271 253 235 233 237 235 236 234 234 224 229 238 244 250 259 268 284 294 292 299 298 268 293 283 263 238
351 348 344 340 337 334 331 328 326 323 319 312 309 304 297 295 255 166 87 348 298 226 220 226 236 252 258 228 234 243 239 242 250 255 271 275 282 285 286 287 298 301 303 293 286
351 350 347 344 341 336 332 328 325 320 317 314 309 304 301 256 239 219 318 313 317 224 212 218 226 236 249 262 232 236 242 245 251 248 254 266 271 273 275 284 287 287 290 295 286
351 348 346 344 341 337 332 327 322 316 311 307 304 302 291 261 276 244 260 268 259 234 220 221 229 232 273 258 252 259 249 252 247 250 254 258 266 270 270 274 283 288 287 284 287
354 349 345 342 336 331 325 319 315 312 308 305 299 287 265 256 283 248 234 230 203 228 240 238 237 222 214 257 262 267 271 270 250 248 248 260 265 256 269 278 274 272 276 273 278
354 350 346 343 339 334 329 322 312 297 295 300 303 280 257 309 305 272 234 247 244 229 246 241 251 275 267 252 261 268 275 259 255 254 252 253 261 261 266 261 268 286 279 275 274
352 349 344 343 336 334 330 329 327 302 276 293 292 268 269 317 262 290 259 247 261 255 257 258 258 261 279 254 266 233 239 251 256 238 252 228 267 271 273 268 258 260 261 265 263
347 342 340 340 336 333 336 346 1 320 301 301 288 269 261 261 306 269 212 219 249 242 256 243 240 234 234 227 221 216 223 235 247 243 233 241 252 264 263 262 260 261 255 253 259
341 345 343 338 335 339 346 356 1 5 353 293 283 229 280 271 298 266 231 235 218 248 218 233 220 223 221 220 238 260 233 246 247 243 256 254 259 266 267 252 263 266 269 258 246
346 344 337 339 343 2 347 340 349 323 296 286 274 268 261 268 281 282 274 281 261 226 229 235 231 232 241 238 240 248 262 259 265 253 244 247 256 252 253 257 255 252 260 268 270
345 342 338 355 358 5 346 344 335 332 309 299 289 256 255 248 253 256 251 251 250 252 240 240 250 231 237 231 235 230 238 252 259 293 282 295 288 282 282 278 276 271 276 280 257
346 344 340 351 5 355 355 337 333 336 306 319 346 17 339 231 261 252 260 228 225 237 241 257 252 244 249 226 227 243 236 246 261 252 255 247 273 262 267 268 258 260 261 266 265
346 345 347 347 339 356 336 336 328 340 309 328 314 333 331 22 349 302 267 227 226 225 214 243 273 261 251 247 229 251 229 257 254 243 261 258 260 263 204 248 282 267 270 267 266
345 347 352 10 350 348 333 338 331 57 321 308 295 328 332 342 327 301 289 212 222 230 252 255 247 253 264 272 246 266 241 246 257 260 269 244 228 261 242 254 250 259 266 270 279
341 347 348 352 337 335 346 348 12 42 324 332 355 6 360 358 325 324 306 226 225 238 242 262 257 243 255 269 270 250 237 248 234 231 239 221 240 249 246 227 242 244 258 272 200
336 325 342 312 349 335 338 346 281 298 338 322 332 4 4 20 341 330 327 308 299 297 263 239 274 272 274 235 258 253 225 215 217 214 250 256 248 252 244 240 242 249 258 134 133
335 319 314 297 323 353 356 356 119 296 329 313 327 342 336 16 113 335 337 346 1 64 34 10 264 301 316 308 246 252 250 224 247 276 247 240 243 263 260 256 240 240 174 130 133
327 317 268 244 314 350 16 267 319 8 319 349 309 333 331 344 352 356 326 319 326 73 49 295 290 277 294 318 297 232 253 236 224 233 256 233 258 256 288 236 237 177 137 133 138
340 290 190 305 357 36 56 261 320 356 312 277 28 314 330 329 331 285 296 308 14 330 352 344 253 273 304 246 272 283 240 247 236 202 235 246 265 256 238 222 216 160 144 141 142
15 301 217 322 256 224 304 317 331 316 337 345 335 337 325 330 329 351 352 297 240 271 297 93 286 293 271 273 276 280 286 226 233 222 246 216 260 294 98 113 147 149 145 143 146
334 279 279 303 305 327 293 328 320 331 311 322 339 331 8 360 332 333 298 263 261 260 308 21 323 310 297 251 244 252 280 232 227 224 226 240 243 278 282 108 111 132 134 135 141
332 321 1 336 358 326 333 308 320 319 329 345 326 323 320 285 291 279 249 270 193 281 118 117 252 235 272 300 322 298 316 326 322 227 222 239 251 285 272 128 132 135 139 140 143
336 347 8 322 325 308 318 292 321 328 339 324 303 318 325 310 306 301 318 321 339 215 131 149 265 256 277 283 287 271 283 297 310 292 224 238 254 228 193 123 135 133 135 139 142
344 340 321 296 305 310 319 321 310 314 326 312 316 337 337 294 289 308 305 296 295 197 207 177 264 295 292 279 221 271 280 283 278 279 281 241 244 298 25 113 131 140 143 142 143
323 321 317 282 296 323 323 330 323 331 303 317 313 327 297 292 302 293 284 272 267 268 270 252 205 320 263 109 146 268 256 263 261 273 269 237 223 137 68 38 68 127 136 145 149
Height
1520 1518 1515 1513 1512 1511 1509 1504 1503 1503 1502 1499 1498 1495 1492 1490 1489 1488 1484 1490 1493 1495 1497 1498 1496 1499 1503 1504 1506 1507 1511 1514 1505 1495 1482 1470 1473 1473 1472 1472 1475 1474 1479 1480 1480
1518 1516 1514 1511 1509 1506 1504 1503 1502 1499 1498 1497 1494 1492 1490 1486 1482 1476 1481 1481 1485 1491 1492 1493 1493 1497 1500 1499 1500 1499 1503 1495 1484 1485 1483 1475 1476 1472 1473 1472 1477 1475 1475 1480 1477
1518 1516 1513 1510 1508 1505 1502 1500 1497 1496 1494 1492 1491 1490 1489 1485 1479 1469 1472 1473 1476 1481 1486 1489 1490 1494 1495 1494 1491 1490 1484 1483 1481 1483 1481 1477 1473 1471 1470 1470 1472 1473 1475 1474 1474
1518 1516 1513 1510 1508 1505 1502 1499 1495 1492 1490 1489 1487 1486 1485 1485 1482 1467 1468 1471 1469 1473 1480 1483 1487 1488 1489 1485 1486 1486 1477 1479 1480 1481 1478 1474 1473 1468 1467 1468 1468 1469 1469 1470 1470
1517 1514 1511 1508 1506 1503 1500 1497 1494 1491 1488 1485 1484 1483 1481 1476 1463 1466 1466 1469 1469 1471 1475 1478 1480 1485 1482 1479 1482 1474 1473 1476 1475 1475 1474 1473 1468 1463 1461 1463 1464 1464 1465 1464 1463
1516 1513 1510 1507 1504 1500 1497 1494 1491 1488 1486 1483 1480 1478 1476 1469 1461 1461 1465 1466 1469 1470 1471 1473 1475 1479 1477 1475 1476 1472 1472 1468 1470 1468 1468 1468 1462 1461 1459 1460 1458 1459 1458 1458 1457
1517 1513 1510 1506 1502 1498 1494 1490 1487 1484 1481 1479 1477 1475 1471 1457 1455 1456 1456 1458 1459 1463 1467 1469 1470 1473 1471 1472 1469 1470 1470 1465 1458 1460 1461 1466 1452 1449 1453 1455 1452 1452 1452 1450 1450
1514 1510 1506 1503 1499 1495 1491 1486 1482 1480 1477 1476 1473 1471 1459 1451 1450 1449 1451 1452 1455 1455 1459 1460 1463 1466 1467 1468 1466 1469 1469 1467 1451 1453 1452 1465 1429 1444 1449 1448 1446 1446 1445 1444 1442
1512 1508 1504 1499 1495 1490 1485 1481 1476 1475 1473 1472 1470 1468 1456 1448 1445 1444 1445 1448 1451 1453 1457 1460 1460 1462 1465 1466 1470 1460 1468 1460 1450 1445 1450 1453 1432 1439 1442 1440 1437 1437 1435 1434 1431
1510 1506 1502 1497 1492 1488 1482 1478 1473 1471 1469 1470 1469 1471 1451 1443 1442 1444 1445 1447 1449 1451 1454 1456 1458 1459 1460 1463 1459 1456 1458 1443 1438 1446 1443 1445 1438 1432 1432 1433 1429 1427 1424 1422 1423
1509 1503 1498 1493 1488 1485 1481 1476 1473 1472 1471 1471 1465 1457 1443 1443 1440 1443 1444 1444 1446 1449 1452 1452 1458 1448 1422 1440 1445 1440 1439 1439 1436 1440 1442 1437 1434 1428 1421 1422 1422 1419 1418 1415 1414
1506 1502 1497 1492 1488 1485 1484 1481 1481 1480 1464 1453 1453 1445 1444 1444 1442 1439 1442 1443 1444 1447 1447 1451 1441 1424 1440 1440 1447 1446 1443 1435 1430 1430 1434 1428 1429 1420 1412 1412 1412 1411 1408 1408 1408
1506 1501 1496 1491 1487 1486 1484 1484 1480 1474 1467 1442 1437 1432 1428 1439 1436 1436 1438 1438 1438 1442 1443 1444 1427 1432 1436 1439 1440 1438 1437 1437 1439 1435 1425 1428 1429 1419 1408 1404 1404 1403 1403 1401 1400
1504 1500 1495 1489 1489 1486 1485 1482 1478 1474 1472 1453 1437 1433 1427 1428 1431 1424 1425 1431 1433 1436 1439 1433 1426 1425 1429 1430 1431 1433 1428 1431 1433 1440 1443 1430 1445 1415 1406 1401 1399 1396 1395 1393 1392
1502 1497 1494 1490 1488 1486 1484 1480 1476 1475 1480 1457 1444 1436 1429 1428 1427 1418 1421 1422 1424 1428 1432 1420 1422 1424 1425 1423 1423 1417 1423 1427 1427 1434 1435 1429 1441 1395 1401 1402 1397 1391 1388 1385 1383
1500 1496 1492 1490 1486 1485 1482 1478 1475 1478 1473 1455 1441 1433 1428 1424 1424 1421 1415 1418 1417 1421 1419 1417 1419 1422 1417 1417 1416 1418 1421 1424 1426 1432 1448 1417 1427 1385 1402 1397 1388 1382 1380 1377 1376
1498 1494 1491 1489 1487 1485 1481 1478 1481 1482 1461 1450 1442 1438 1434 1435 1426 1420 1418 1418 1422 1424 1422 1415 1415 1413 1414 1418 1413 1414 1428 1446 1450 1445 1427 1410 1416 1390 1384 1379 1375 1377 1373 1373 1369
1495 1492 1491 1488 1485 1483 1480 1480 1484 1468 1461 1453 1444 1443 1443 1441 1440 1433 1425 1421 1413 1413 1415 1419 1426 1412 1408 1411 1417 1414 1418 1435 1447 1434 1418 1407 1408 1384 1364 1367 1366 1367 1369 1369 1368
1493 1490 1488 1487 1487 1483 1482 1488 1483 1476 1476 1457 1444 1442 1442 1439 1447 1441 1436 1429 1417 1420 1426 1428 1419 1408 1411 1408 1407 1409 1414 1398 1418 1411 1419 1404 1387 1373 1362 1361 1360 1361 1365 1368 1370
1491 1488 1485 1486 1485 1484 1484 1484 1474 1473 1469 1458 1455 1444 1445 1440 1441 1440 1440 1430 1425 1421 1422 1425 1428 1413 1407 1406 1396 1399 1396 1415 1410 1433 1435 1400 1393 1385 1362 1354 1352 1358 1361 1366 1371
1491 1489 1484 1484 1484 1485 1491 1480 1470 1468 1464 1458 1463 1452 1447 1441 1444 1444 1438 1430 1430 1429 1426 1426 1427 1415 1413 1412 1408 1402 1399 1403 1399 1409 1419 1420 1399 1354 1348 1343 1346 1353 1357 1363 1369
1492 1491 1485 1484 1485 1483 1485 1476 1472 1465 1460 1454 1450 1447 1446 1440 1439 1437 1444 1445 1433 1432 1430 1430 1432 1423 1415 1402 1402 1401 1403 1395 1410 1405 1397 1402 1387 1343 1337 1335 1336 1346 1354 1361 1367
1495 1489 1484 1484 1488 1484 1480 1475 1471 1465 1463 1454 1452 1448 1445 1447 1447 1438 1437 1432 1434 1431 1427 1429 1433 1431 1408 1393 1390 1395 1386 1382 1387 1392 1395 1401 1382 1346 1344 1337 1339 1347 1355 1363 1370
1501 1493 1487 1485 1484 1482 1479 1475 1468 1463 1458 1454 1452 1448 1444 1445 1441 1439 1440 1429 1428 1432 1430 1432 1434 1430 1426 1404 1415 1412 1404 1398 1398 1391 1384 1379 1364 1360 1351 1344 1345 1350 1356 1364 1371
1504 1498 1498 1493 1487 1484 1480 1477 1472 1464 1459 1456 1450 1449 1446 1445 1438 1434 1429 1425 1424 1429 1431 1434 1432 1425 1415 1404 1406 1409 1406 1401 1403 1388 1375 1369 1364 1353 1346 1344 1345 1351 1358 1365 1372
1508 1506 1500 1496 1489 1482 1475 1476 1470 1466 1463 1456 1454 1447 1449 1448 1438 1431 1427 1426 1426 1427 1428 1433 1426 1420 1409 1398 1402 1400 1396 1396 1393 1385 1373 1358 1357 1348 1343 1342 1349 1354 1359 1366 1372
1507 1505 1503 1493 1488 1484 1479 1472 1467 1462 1459 1454 1447 1445 1444 1436 1432 1429 1419 1416 1418 1419 1419 1420 1421 1422 1408 1395 1400 1404 1386 1382 1379 1376 1368 1359 1345 1351 1356 1355 1351 1355 1361 1367 1373